NOAA ERDDAP
Easier access to scientific data
   
Brought to you by NOAA NMFS SWFSC ERD    

ERDDAP > tabledap > Subset ?

Dataset Title:  "Profile - R1.x134.073.0014 - GLAD_small_boat_CTD_009 - 28.79N, 88.2W - 2012-
07-22"
Subscribe RSS
Institution:  University of Delaware   (Dataset ID: R1_x134_073_0014_GLAD_small_boat_CTD_009)
Information:  Summary ? | License ? | FGDC | ISO 19115 | Metadata | Background (external link) | Data Access Form | Make a graph

Select a subset:      (Current number of distinct combinations of matching data: 109)
Make as many selections as you want, in any order. Each selection changes the other options (and the map and data below) accordingly.

    time ?  =  109 options
    depth ?  =  m   109 options
    temperature ?  =  deg C   109 options
    salinity ?  =  PSU   109 options

View:      Map of All Related Data ?      Distinct Data Counts ?     Distinct Data ?      Related Data Counts ?     Related Data ?

 
Map of All Related Data ?   (Refine the map and/or download the image)

To view the map, check View : Map of All Related Data above.

WARNING: This may involve lots of data. For some datasets, this may be slow. Consider using this only when you need it and have selected a small subset of the data.
 


Distinct Data Counts ?

To view the counts of distinct combinations of the variables listed above,
check View : Distinct Data Counts above and select a value for one of the variables above.

 


Distinct Data ?   (Metadata)    (Refine the data subset and/or download the data)  

time depth temperature salinity
UTC m deg C PSU
2012-07-22T12:35:06Z 0.32819862 28.37779536 33.54260531
2012-07-22T12:35:07Z 0.62697326 28.37271896 33.57968351
2012-07-22T12:35:08Z 0.94287822 28.37223976 33.58238737
2012-07-22T12:35:09Z 1.24525702 28.3718107 33.57748643
2012-07-22T12:35:10Z 1.86566703 28.36682374 33.58668815
2012-07-22T12:35:11Z 2.37041098 28.37274125 33.58937317
2012-07-22T12:35:12Z 2.96006956 28.37467482 33.59421676
2012-07-22T12:35:13Z 3.68826587 28.37353808 33.60235098
2012-07-22T12:35:14Z 4.64390668 28.39419084 33.60562426
2012-07-22T12:35:15Z 5.06251198 28.40634142 33.67434955
2012-07-22T12:35:16Z 5.83728175 28.48639201 33.89238542
2012-07-22T12:35:17Z 5.88600677 28.51315984 33.91583327
2012-07-22T12:35:18Z 6.81843558 28.8112654 35.02700946
2012-07-22T12:35:19Z 6.82320516 29.07224863 35.12616231
2012-07-22T12:35:20Z 7.09346263 29.00440753 35.55492909
2012-07-22T12:35:21Z 8.04520572 29.26697284 35.89434265
2012-07-22T12:35:22Z 9.2962586 29.30116942 35.95953618
2012-07-22T12:35:23Z 10.15713705 29.30787296 35.96482268
2012-07-22T12:35:24Z 11.02982936 29.31009445 35.96478877
2012-07-22T12:35:25Z 12.01925673 29.32209138 35.97644125
2012-07-22T12:35:26Z 13.03720259 29.34796887 36.00121027
2012-07-22T12:35:27Z 14.08826268 29.37205802 36.02909122
2012-07-22T12:35:28Z 15.08035587 29.41785018 36.06052889
2012-07-22T12:35:29Z 15.4546137 29.42493907 36.0559558
2012-07-22T12:35:30Z 16.20294806 29.43435983 36.06767717
2012-07-22T12:35:31Z 17.13170202 29.43844263 36.07639355
2012-07-22T12:35:32Z 17.86302706 29.44200749 36.07823369
2012-07-22T12:35:33Z 18.66360694 29.44707622 36.08706486
2012-07-22T12:35:34Z 19.46087221 29.45857762 36.10176107
2012-07-22T12:35:35Z 19.73371617 29.46372609 36.10490727
2012-07-22T12:35:36Z 20.49167939 29.46943255 36.10707058
2012-07-22T12:35:37Z 21.06437305 29.47139863 36.107882
2012-07-22T12:35:38Z 21.77707409 29.47422669 36.11378567
2012-07-22T12:35:39Z 22.36563622 29.47642385 36.12344683
2012-07-22T12:35:40Z 23.19470356 29.49396348 36.13434472
2012-07-22T12:35:41Z 23.65539655 29.49417761 36.14236258
2012-07-22T12:35:42Z 24.26370918 29.4987983 36.13605119
2012-07-22T12:35:43Z 25.04311488 29.43107119 36.13797628
2012-07-22T12:35:44Z 25.86059829 29.2244884 36.14542629
2012-07-22T12:35:45Z 26.10385165 29.07487998 36.16156521
2012-07-22T12:35:46Z 26.76271272 28.64173373 35.99209338
2012-07-22T12:35:47Z 27.22841509 28.46116468 36.08159086
2012-07-22T12:35:48Z 27.97463728 28.46186179 36.17699198
2012-07-22T12:35:49Z 28.26106224 28.5813323 36.24774225
2012-07-22T12:35:50Z 28.8582692 28.58914368 36.26565788
2012-07-22T12:35:51Z 29.62411442 28.53279656 36.29444839
2012-07-22T12:35:52Z 29.33442103 28.5464479 36.28275272
2012-07-22T12:35:53Z 29.29601395 28.54470092 36.28818836
2012-07-22T12:35:54Z 29.17883739 28.547687 36.29185475
2012-07-22T12:35:55Z 28.75573034 28.54875307 36.28900046
2012-07-22T12:35:56Z 27.75041869 28.57467159 36.26081339
2012-07-22T12:35:57Z 27.36834417 28.50549923 36.15589866
2012-07-22T12:35:58Z 26.98424929 28.5035744 36.10019348
2012-07-22T12:35:59Z 26.62716776 28.46859336 36.06828509
2012-07-22T12:36:00Z 25.96576845 28.61402232 36.10352699
2012-07-22T12:36:01Z 25.44200309 28.84669353 36.24967839
2012-07-22T12:36:02Z 25.04074765 29.10988523 36.26582355
2012-07-22T12:36:03Z 24.10247269 29.41596402 36.15354649
2012-07-22T12:36:04Z 23.83773451 29.4807169 36.13701961
2012-07-22T12:36:05Z 22.89379471 29.49072914 36.12855809
2012-07-22T12:36:06Z 22.84967006 29.48890917 36.13125523
2012-07-22T12:36:07Z 22.03002168 29.48988395 36.12519918
2012-07-22T12:36:08Z 21.58472083 29.47555061 36.1182855
2012-07-22T12:36:09Z 20.91664862 29.47099865 36.11351938
2012-07-22T12:36:10Z 20.52582667 29.47099301 36.113531
2012-07-22T12:36:11Z 20.37670412 29.46939312 36.10975849
2012-07-22T12:36:12Z 19.7643674 29.46830025 36.10727904
2012-07-22T12:36:13Z 19.25697958 29.46554559 36.1036988
2012-07-22T12:36:14Z 18.7229595 29.45773271 36.09371693
2012-07-22T12:36:15Z 18.28850048 29.45546839 36.08661841
2012-07-22T12:36:16Z 17.95674714 29.44711565 36.09107681
2012-07-22T12:36:17Z 17.38779001 29.44344923 36.08118043
2012-07-22T12:36:18Z 17.06852634 29.44106135 36.07452643
2012-07-22T12:36:19Z 16.56448733 29.43966469 36.07287087
2012-07-22T12:36:20Z 16.3109162 29.43829621 36.07607216
2012-07-22T12:36:21Z 15.55823171 29.43631392 36.07697087
2012-07-22T12:36:22Z 15.18503273 29.42971409 36.06352879
2012-07-22T12:36:23Z 14.7396964 29.42507421 36.06010908
2012-07-22T12:36:24Z 14.40949241 29.42086247 36.04874109
2012-07-22T12:36:25Z 13.69193977 29.40197948 36.02063272
2012-07-22T12:36:26Z 13.36521073 29.36771354 36.01384125
2012-07-22T12:36:27Z 12.8478612 29.36451158 36.00817729
2012-07-22T12:36:28Z 12.92164546 29.35834993 36.00485994
2012-07-22T12:36:29Z 11.92154143 29.34494197 35.99143228
2012-07-22T12:36:30Z 11.31378472 29.33231217 35.97825953
2012-07-22T12:36:31Z 11.11463508 29.31892468 35.97974846
2012-07-22T12:36:32Z 10.69667639 29.31600555 35.97524347
2012-07-22T12:36:33Z 9.66045219 29.30967827 35.97059449
2012-07-22T12:36:34Z 9.78150003 29.30803043 35.96940753
2012-07-22T12:36:35Z 9.28147989 29.30800793 35.96850854
2012-07-22T12:36:36Z 8.89238413 29.30414434 35.95873457
2012-07-22T12:36:37Z 8.20969993 29.29038962 35.91513412
2012-07-22T12:36:38Z 7.80604884 29.27337605 35.91191926
2012-07-22T12:36:39Z 7.40827481 29.25667461 35.8011786
2012-07-22T12:36:40Z 6.88951447 29.07291067 34.76096112
2012-07-22T12:36:41Z 6.28861754 28.8221108 34.2750428
2012-07-22T12:36:42Z 5.73698677 28.60565617 33.99263144
2012-07-22T12:36:43Z 5.50083606 28.45109887 33.73751219
2012-07-22T12:36:44Z 4.88974288 28.39984793 33.6047658
2012-07-22T12:36:45Z 4.656731 28.35643267 33.60403661
2012-07-22T12:36:46Z 3.88359214 28.35382532 33.6081759
2012-07-22T12:36:47Z 3.6729169 28.34848267 33.57729609
2012-07-22T12:36:48Z 3.1525597 28.34984755 33.613712
2012-07-22T12:36:49Z 2.83490209 28.34726821 33.6085934
2012-07-22T12:36:50Z 2.17091643 28.347998 33.60627052
2012-07-22T12:36:51Z 1.6904103 28.35107875 33.60625358
2012-07-22T12:36:52Z 1.4643431 28.34956343 33.60941207
2012-07-22T12:36:53Z 0.79416774 28.35073334 33.60018905
2012-07-22T12:36:54Z 0.59630031 28.34370849 33.59429767

In total, there are 109 rows of distinct combinations of the variables listed above. All of the rows are shown above.
To change the maximum number of rows displayed, change View : Distinct Data above.
 


Related Data Counts ?

To view the related data counts,
check View : Related Data Counts above and select a value for one of the variables above.

WARNING: This may involve lots of data. For some datasets, this may be slow. Consider using this only when you need it and have selected a small subset of the data.
 


Related Data ?   (Metadata)    (Refine the data subset and/or download the data)

To view the related data, change View : Related Data above.

WARNING: This may involve lots of data. For some datasets, this may be slow. Consider using this only when you need it and have selected a small subset of the data.


 
ERDDAP, Version 2.02
Disclaimers | Privacy Policy | Contact